Погода в Брайс-Каньоне

США     37°37′47″N   112°09′55″W
темп.,
°C
ветер,
м/с
пор.,
м/с
влажн.,
%
обл.,
%
осадки,
мм/ч
давл.,
гПа
погр.,
м
21 октября, чт
чт2100:00+2юв224832 0.0 102410
03:00+1вюв2248100 0.0 102410
06:00+2вюв1145100 0.0 102410
09:00+5вюв22415 0.0 102522
12:00+12ююв33255 0.0 1022759
15:00+15ююв33205 0.0 10191412
18:00+11ююв343299 0.0 102096
21:00+7юв2238100 0.0 102210
22 октября, пт
пт2200:00+6юв224077 0.0 102210
03:00+5юв223983 0.0 102010
06:00+3юв224176 0.0 101910
09:00+6юв334053 0.0 101962
12:00+12ююв572671 0.0 1015996
15:00+14ююз6918100 0.0 10111524
18:00+11ююз47296 0.0 1011207
21:00+7ююв333323 0.0 101230
23 октября, сб
сб2300:00+5ююв223899 0.0 101217
03:00+5ю3439100 0.0 101159
06:00+5ююв3440100 0.0 101075
09:00+6ююв2641100 0.0 1010336
12:00+10юз71029100 0.0 10081555
15:00+11юз9112779 0.0 10051956
18:00+8зюз71036100 0.0 10051201
21:00+4зсз34526 0.0 100873
24 октября, вс
вс2400:00+3зсз2267100 0.0 100921
03:00+2зюз1274100 0.0 101022
06:00+2з117790 0.0 101112
09:00+4ююв11645 0.0 101157
12:00+10ю574364 0.0 10091139
15:00+11ююз810445 0.0 10081478
18:00+9ююз8135325 0.0 10081181
21:00+7ююз6136474 0.0 1010804
25 октября, пн
пн2500:00+6ю51167100 0.0 1010518
03:00+5ююв5127671 0.0 1010492
06:00+3юв4688100 0.0 1010114
09:00+5юв41181100 0.0 1009468
12:00+11ю9215642 0.0 10061785
15:00+13ююз13244772 0.0 10032200
18:00+10юз12245776 0.0 10032017
21:00+7юз13228228 0.1 10041213